Location: Biharia
(46.4333°N, 22.8000°E)
Time: 23:18:05
(UTC+00:00)

SL-08 RB Rocket - Pass Details

Date: 16 October 2021
Orbit: 646 x 683 km, 97.8° (Epoch: 26 November)

Event Time Altitude Azimuth Distance (km) Brightness Sun altitude
Rises 17:15:42 0° 171° (S) 2,965 6.9 -17.2°
Reaches altitude 10° 17:17:54 10° 173° (S) 2,063 6.1 -17.6°
Maximum altitude 17:22:24 71° 258° (WSW) 702 3.9 -18.3°
Drops below altitude 10° 17:26:59 10° 343° (NNW) 2,103 6.6 -19.1°
Sets 17:29:15 0° 346° (NNW) 3,027 7.4 -19.5°
